Location: Kott?ru
(16.6209°N, 80.6208°E)
Time: 14:40:41
(UTC+00:00)

Yuri Rocket - Pass Details

Date: 18 September 2020
Orbit: 568 x 1914 km, 28.2° (Epoch: 30 October)

Event Time Altitude Azimuth Distance (km) Brightness Sun altitude
Exits shadow 22:59:56 55° 271° (W) 787 3.2 -21.4°
Maximum altitude 23:00:52 75° 337° (NNW) 705 3.2 -21.2°
Drops below altitude 10° 23:06:26 10° 63° (ENE) 2,447 7.2 -19.9°
Sets 23:09:24 0° 65° (ENE) 3,594 8.3 -19.2°
